Flag for Germany Weather past 2 weeks in Taunusstein, Hesse, Germany

Now
39 °F

Low clouds.


Feels Like: 33 °F
Forecast: 36 / 43 °F
Wind: 9 mph from South

Location: Wiesbaden Airport

Current Time: Mar 1, 2015 at 10:16:04 AM

Latest Report: Mar 1, 2015 at 9:58 AM


Visibility: N/A

Pressure: 29.76 "Hg

Humidity: 100%

Dew point: 39 °F

Location of TaunussteinLocation

Historic Weather in Taunusstein — Graph

°F

Taunusstein temperature yesterday

Maximum temperature yesterday: 46 °F (at 2:58 PM)
Minimum temperature yesterday: 29 °F (at 6:58 AM)
Average temperature yesterday: 38 °F

Past Weeks' High & Low Weather Summary

 TemperatureHumidityPressure
High52 °F (Feb 20, 1:58 PM)100% (Feb 22, 5:58 AM)30.78 "Hg (Feb 22, 5:58 AM)
Low27 °F (Feb 15, 7:58 AM)50% (Feb 20, 5:58 PM)29.47 "Hg (Feb 21, 6:58 AM)
Average38 °F83%30.04 "Hg
* Reported Feb 14 8:58 AM — Mar 1 8:58 AM, Taunusstein, Weather by CustomWeather, © 2015

Note: Actual official high and low records may vary slightly from our data, if they occured in-between our weather recording intervals... More about our weather records

Advertising

Taunusstein weather history for previous 24 hours

 ConditionsComfort  
Time TempWeatherWind HumidityBarometerVisibility
8:58 AM
Sun, Mar 1
37 °FLow clouds.5 mph100%29.76 "HgN/A
8:03 AM37 °FFog.6 mph93%29.75 "Hg6 mi
7:58 AM37 °FLight rain. Fog.5 mph93%29.78 "Hg4 mi
7:04 AM36 °FLight rain. Mostly cloudy.7 mph100%29.75 "HgN/A
6:59 AM36 °FLight rain. Overcast.8 mph100%29.75 "HgN/A
5:58 AM35 °FLight rain. Fog.3 mph95%29.79 "Hg6 mi
4:58 AM36 °FLight rain. Overcast.7 mph89%29.81 "HgN/A
4:02 AM37 °FLight rain. Mostly cloudy.8 mph81%29.80 "HgN/A
3:58 AM36 °FMostly cloudy.8 mph85%29.82 "HgN/A
2:58 AM36 °FPassing clouds.1 mph84%29.87 "HgN/A
1:58 AM36 °FOvercast.2 mph81%29.90 "HgN/A
12:58 AM34 °FPassing clouds.6 mph83%29.92 "HgN/A
11:58 PM
Sat, Feb 28
34 °FClear.6 mph81%29.95 "HgN/A
10:58 PM34 °FClear.6 mph80%29.98 "HgN/A
9:58 PM36 °FClear.6 mph75%30.02 "HgN/A
8:58 PM37 °FClear.2 mph75%30.04 "HgN/A
7:58 PM37 °FClear.5 mph75%30.05 "HgN/A
6:58 PM39 °FClear.3 mph69%30.06 "HgN/A
5:58 PM43 °FSunny.6 mph57%30.06 "HgN/A
4:58 PM45 °FSunny.9 mph50%30.07 "HgN/A
3:58 PM46 °FScattered clouds.7 mph52%30.10 "HgN/A
2:58 PM46 °FSunny.9 mph50%30.11 "HgN/A
1:58 PM44 °FPartly sunny.6 mph58%30.13 "HgN/A
1:00 PM45 °FScattered clouds.10 mph61%30.13 "HgN/A
12:58 PM44 °FPartly sunny.9 mph61%30.15 "HgN/A
11:58 AM43 °FSunny.7 mph71%30.18 "HgN/A
10:58 AM39 °FSunny.2 mph81%30.20 "HgN/A
Weather by CustomWeather, © 2015

See weather overviewHow to use our weather pages